Location: Borowce
(50.8255°N, 19.6209°E)
Time: 18:08:11
(UTC+00:00)

SeaSat 1 - Pass Details

Date: 19 May 2025
Orbit: 738 x 740 km, 108.0° (Epoch: 20 June)

Event Time Altitude Azimuth Distance (km) Brightness Sun altitude
Exits shadow 19:57:08 14° 126° (SE) 2,006 4.1 -10.9°
Maximum altitude 20:01:16 54° 52° (NE) 904 2.9 -11.3°
Drops below altitude 10° 20:06:03 10° 337° (NNW) 2,261 6.3 -11.7°
Sets 20:08:21 0° 333° (NNW) 3,188 7.7 -11.9°
